DW3560 Weather Reports


time (UTC)temp
C
wind
direction
speed
KPH
gust
KPH
rain 1hr
cm
rain 24hr
cm
rain mn
cm
humidity
%
barometer
mb
20200404033503 8 233 1.6 8.0 0.00 0.00 0.00 83 1014.8
20200404033003 8 233 3.2 8.0 0.00 0.00 0.00 82 1014.8
20200404032503 8 242 1.6 11.3 0.00 0.00 0.00 82 1014.8
20200404032002 8 245 1.6 11.3 0.00 0.00 0.00 81 1014.8
20200404031503 8 246 3.2 14.5 0.00 0.00 0.00 81 1014.8
20200404031002 8 251 4.8 16.1 0.00 0.00 0.00 80 1014.8
20200404030502 8 250 4.8 16.1 0.00 0.00 0.00 80 1014.8
20200404030004 8 252 3.2 14.5 0.00 0.00 0.00 80 1014.7
20200404025504 8 264 1.6 9.7 0.00 0.00 0.00 79 1014.8
20200404025003 8 262 1.6 11.3 0.00 0.00 0.00 79 1014.7
20200404024503 8 254 3.2 14.5 0.00 0.00 0.00 79 1014.9
20200404024003 8 251 3.2 14.5 0.00 0.00 0.00 78 1014.9
20200404023503 8 248 4.8 17.7 0.00 0.00 0.00 78 1015.0
20200404023003 8 253 6.4 19.3 0.00 0.00 0.00 77 1014.9
20200404022503 9 263 4.8 19.3 0.00 0.00 0.00 77 1015.0
20200404022003 9 261 6.4 17.7 0.00 0.00 0.00 76 1015.0
20200404021504 9 260 6.4 16.1 0.00 0.00 0.00 76 1014.9
20200404021003 9 263 4.8 16.1 0.00 0.00 0.00 76 1015.0
20200404020503 10 261 4.8 14.5 0.00 0.00 0.00 76 1015.0
20200404020003 10 257 4.8 16.1 0.00 0.00 0.00 76 1015.0
20200404015502 10 255 4.8 16.1 0.00 0.00 0.00 74 1015.0
20200404015002 10 254 4.8 17.7 0.00 0.00 0.00 74 1014.8
20200404014504 10 261 4.8 17.7 0.00 0.00 0.00 73 1014.9
20200404014004 10 278 4.8 12.9 0.00 0.00 0.00 71 1014.8
20200404013504 11 285 4.8 16.1 0.00 0.00 0.00 70 1014.9
20200404013003 11 281 4.8 16.1 0.00 0.00 0.00 69 1015.0
20200404012503 11 277 4.8 14.5 0.00 0.00 0.00 69 1015.1
20200404012004 11 273 4.8 16.1 0.00 0.00 0.00 69 1015.0
20200404011503 11 272 4.8 16.1 0.00 0.00 0.00 68 1015.0
20200404011003 11 287 3.2 16.1 0.00 0.00 0.00 67 1015.0
20200404010503 11 292 3.2 12.9 0.00 0.00 0.00 67 1015.0
20200404010003 11 274 3.2 16.1 0.00 0.00 0.00 66 1015.0
20200404005502 11 268 4.8 16.1 0.00 0.00 0.00 65 1015.1
20200404005003 12 275 4.8 14.5 0.00 0.00 0.00 65 1015.1
20200404004503 12 286 4.8 17.7 0.00 0.00 0.00 66 1015.1
20200404004003 12 283 4.8 17.7 0.00 0.00 0.00 66 1015.1
20200404003504 12 281 4.8 14.5 0.00 0.00 0.00 64 1015.1
20200404003003 12 281 4.8 14.5 0.00 0.00 0.00 62 1015.2
20200404002504 12 267 3.2 12.9 0.00 0.00 0.00 60 1015.2
20200404002003 12 287 4.8 16.1 0.00 0.00 0.00 60 1015.2
20200404001503 12 290 4.8 17.7 0.00 0.00 0.00 59 1015.3
20200404001003 13 262 4.8 17.7 0.00 0.00 0.00 59 1015.3
20200404000503 12 273 4.8 16.1 0.00 0.00 0.00 60 1015.3
20200404000003 13 287 3.2 14.5 0.00 0.00 0.00 59 1015.5
20200403235503 13 291 4.8 14.5 0.00 0.00 0.00 60 1015.6
20200403235003 13 300 4.8 14.5 0.00 0.00 0.00 58 1015.5
20200403234502 13 284 4.8 16.1 0.00 0.00 0.00 58 1015.5
20200403234004 13 278 6.4 16.1 0.00 0.00 0.00 60 1015.5
20200403233503 13 288 4.8 16.1 0.00 0.00 0.00 57 1015.6
20200403233003 13 299 4.8 17.7 0.00 0.00 0.00 58 1015.7
20200403232503 13 291 4.8 19.3 0.00 0.00 0.00 57 1015.7
20200403232004 13 284 3.2 19.3 0.00 0.00 0.00 56 1015.7
20200403231503 13 285 4.8 12.9 0.00 0.00 0.00 57 1015.6
20200403231003 13 275 4.8 16.1 0.00 0.00 0.00 56 1015.7
20200403230503 13 265 4.8 16.1 0.00 0.00 0.00 57 1015.7
20200403230002 13 274 4.8 19.3 0.00 0.00 0.00 54 1015.8
20200403225503 13 279 4.8 19.3 0.00 0.00 0.00 54 1015.8
20200403225003 13 270 6.4 16.1 0.00 0.00 0.00 54 1015.9
20200403224503 13 278 4.8 16.1 0.00 0.00 0.00 54 1015.9
20200403224003 13 300 4.8 17.7 0.00 0.00 0.00 55 1015.9
20200403223503 13 294 6.4 17.7 0.00 0.00 0.00 54 1016.0
20200403223004 13 274 4.8 19.3 0.00 0.00 0.00 53 1016.0
20200403222504 13 270 6.4 19.3 0.00 0.00 0.00 55 1016.0
20200403222004 13 265 4.8 19.3 0.00 0.00 0.00 53 1016.2
20200403221504 14 280 4.8 17.7 0.00 0.00 0.00 51 1016.2
20200403221004 14 280 4.8 17.7 0.00 0.00 0.00 50 1016.2
20200403220503 14 268 4.8 16.1 0.00 0.00 0.00 52 1016.3
20200403220003 14 311 4.8 14.5 0.00 0.00 0.00 47 1016.3
20200403215504 14 318 4.8 14.5 0.00 0.00 0.00 50 1016.3
20200403215003 14 305 4.8 14.5 0.00 0.00 0.00 50 1016.4
20200403214503 13 285 6.4 17.7 0.00 0.00 0.00 49 1016.4
20200403214003 14 277 4.8 17.7 0.00 0.00 0.00 48 1016.4
20200403213503 14 299 4.8 14.5 0.00 0.00 0.00 49 1016.5
20200403213004 13 288 4.8 20.9 0.00 0.00 0.00 49 1016.5
20200403212502 14 289 4.8 20.9 0.00 0.00 0.00 47 1016.6
20200403212004 14 302 4.8 16.1 0.00 0.00 0.00 47 1016.6
20200403211503 14 316 6.4 19.3 0.00 0.00 0.00 48 1016.6
20200403211003 13 306 6.4 19.3 0.00 0.00 0.00 48 1016.7
20200403210503 13 267 4.8 16.1 0.00 0.00 0.00 48 1016.8
20200403210003 13 286 4.8 14.5 0.00 0.00 0.00 48 1016.7
20200403205504 14 302 3.2 14.5 0.00 0.00 0.00 51 1016.9
20200403205004 14 308 4.8 14.5 0.00 0.00 0.00 51 1016.9
20200403204503 13 306 4.8 14.5 0.00 0.00 0.00 51 1017.0
20200403204003 13 290 3.2 12.9 0.00 0.00 0.00 52 1017.0
20200403203503 13 304 3.2 11.3 0.00 0.00 0.00 51 1017.2
20200403203003 13 292 3.2 9.7 0.00 0.00 0.00 53 1017.2
20200403202503 13 253 4.8 12.9 0.00 0.00 0.00 53 1017.3
20200403202002 13 252 4.8 12.9 0.00 0.00 0.00 52 1017.4
20200403201503 13 250 3.2 8.0 0.00 0.00 0.00 54 1017.4
20200403201003 13 235 3.2 14.5 0.00 0.00 0.00 57 1017.4
20200403200503 12 234 4.8 14.5 0.00 0.00 0.00 55 1017.5
20200403200004 13 233 4.8 14.5 0.00 0.00 0.00 57 1017.5
20200403195503 12 244 4.8 12.9 0.00 0.00 0.00 57 1017.6
20200403195003 12 249 4.8 11.3 0.00 0.00 0.00 59 1017.5
20200403194503 12 219 4.8 19.3 0.00 0.00 0.00 59 1017.5
20200403194003 13 196 4.8 19.3 0.00 0.00 0.00 59 1017.5
20200403193504 12 204 4.8 12.9 0.00 0.00 0.00 61 1017.5
20200403193004 12 229 4.8 12.9 0.00 0.00 0.00 60 1017.6
20200403192504 12 253 3.2 12.9 0.00 0.00 0.00 61 1017.7
20200403192003 12 253 3.2 12.9 0.00 0.00 0.00 62 1017.7
20200403191503 12 246 3.2 11.3 0.00 0.00 0.00 62 1017.8
20200403191002 12 251 3.2 11.3 0.00 0.00 0.00 62 1017.9
20200403190503 12 274 3.2 9.7 0.00 0.00 0.00 62 1017.9
20200403190004 12 253 1.6 9.7 0.00 0.00 0.00 64 1018.0
20200403185503 11 212 3.2 9.7 0.00 0.00 0.00 65 1018.1
20200403185003 11 199 4.8 11.3 0.00 0.00 0.00 65 1018.1
20200403184503 11 197 4.8 11.3 0.00 0.00 0.00 65 1018.2
20200403184003 11 204 4.8 14.5 0.00 0.00 0.00 63 1018.2
20200403183503 11 212 3.2 14.5 0.00 0.00 0.00 65 1018.3
20200403183003 11 225 3.2 12.9 0.00 0.00 0.00 64 1018.4
20200403182504 11 226 3.2 8.0 0.00 0.00 0.00 66 1018.4
20200403182003 10 208 4.8 14.5 0.00 0.00 0.00 64 1018.4
20200403181505 10 195 4.8 16.1 0.00 0.00 0.00 69 1018.5
20200403181003 11 196 4.8 16.1 0.00 0.00 0.00 68 1018.5
20200403180503 11 231 3.2 8.0 0.00 0.00 0.00 68 1018.4
20200403180003 11 244 3.2 8.0 0.00 0.00 0.00 70 1018.4
20200403175504 10 231 3.2 9.7 0.00 0.00 0.00 69 1018.4
20200403175003 10 238 1.6 9.7 0.00 0.00 0.00 71 1018.4
20200403174503 10 221 3.2 9.7 0.00 0.00 0.00 72 1018.4
20200403174004 10 208 4.8 9.7 0.00 0.00 0.00 72 1018.4
20200403173503 9 199 3.2 11.3 0.00 0.00 0.00 73 1018.4
20200403173004 9 181 4.8 12.9 0.00 0.00 0.00 75 1018.3
20200403172504 9 170 4.8 12.9 0.00 0.00 0.00 75 1018.3
20200403172003 9 178 4.8 9.7 0.00 0.00 0.00 76 1018.3
20200403171503 8 177 4.8 12.9 0.00 0.00 0.00 76 1018.3
20200403171003 8 181 3.2 12.9 0.00 0.00 0.00 77 1018.3
20200403170504 8 200 4.8 11.3 0.00 0.00 0.00 77 1018.3
20200403170003 8 198 4.8 12.9 0.00 0.00 0.00 79 1018.3
20200403165504 8 186 4.8 14.5 0.00 0.00 0.00 79 1018.4
20200403165004 8 172 6.4 14.5 0.00 0.00 0.00 80 1018.4
20200403164504 8 164 4.8 14.5 0.00 0.00 0.00 80 1018.3
20200403164003 8 166 4.8 14.5 0.00 0.00 0.00 80 1018.4
20200403163504 8 168 4.8 11.3 0.00 0.00 0.00 80 1018.3
20200403163003 8 178 4.8 12.9 0.00 0.00 0.00 81 1018.3
20200403162504 7 183 6.4 14.5 0.00 0.00 0.00 80 1018.3
20200403162003 7 172 6.4 14.5 0.00 0.00 0.00 81 1018.3
20200403161503 7 171 6.4 12.9 0.00 0.00 0.00 81 1018.3
20200403161003 7 180 4.8 12.9 0.00 0.00 0.00 82 1018.2
20200403160502 7 179 4.8 12.9 0.00 0.00 0.00 82 1018.2
20200403160004 7 175 4.8 12.9 0.00 0.00 0.00 82 1018.2
20200403155503 7 172 3.2 9.7 0.00 0.00 0.00 83 1018.2
20200403155003 7 176 3.2 9.7 0.00 0.00 0.00 83 1018.1
20200403154503 7 177 4.8 11.3 0.00 0.00 0.00 83 1018.1
20200403154003 7 174 3.2 11.3 0.00 0.00 0.00 84 1018.2
20200403153503 7 173 3.2 14.5 0.00 0.00 0.00 84 1018.0
20200403153003 7 177 3.2 14.5 0.00 0.00 0.00 84 1018.1
20200403152503 6 168 3.2 12.9 0.00 0.00 0.00 86 1018.1
20200403152004 6 155 4.8 11.3 0.00 0.00 0.00 86 1018.0
20200403151503 6 159 4.8 12.9 0.00 0.00 0.00 87 1018.0
20200403151003 6 159 4.8 12.9 0.00 0.00 0.00 87 1017.9
20200403150504 6 161 4.8 11.3 0.00 0.00 0.00 88 1018.0
20200403150004 6 159 4.8 12.9 0.00 0.00 0.00 88 1018.0
20200403145504 6 153 4.8 12.9 0.00 0.00 0.00 88 1017.7
20200403145004 6 150 4.8 9.7 0.00 0.00 0.00 89 1017.7
20200403144503 5 147 4.8 9.7 0.00 0.00 0.00 89 1017.6
20200403144003 5 147 4.8 11.3 0.00 0.00 0.00 89 1017.5
20200403143503 5 150 4.8 11.3 0.00 0.00 0.00 90 1017.5
20200403143003 5 147 4.8 9.7 0.00 0.00 0.00 90 1017.4
20200403142503 5 146 3.2 9.7 0.00 0.00 0.00 90 1017.4
20200403142003 5 155 4.8 9.7 0.00 0.00 0.00 91 1017.4
20200403141505 5 161 4.8 12.9 0.00 0.00 0.00 91 1017.4
20200403141004 5 163 4.8 12.9 0.00 0.00 0.00 91 1017.4
20200403140504 5 157 4.8 14.5 0.00 0.00 0.00 91 1017.4
20200403140003 5 154 4.8 14.5 0.00 0.00 0.00 91 1017.3
20200403135503 5 159 4.8 11.3 0.00 0.00 0.00 91 1017.2
20200403135003 5 155 4.8 11.3 0.00 0.00 0.00 91 1017.2
20200403134503 5 152 4.8 11.3 0.00 0.00 0.00 92 1017.1
20200403134003 5 154 4.8 12.9 0.00 0.00 0.00 92 1017.1
20200403133503 5 155 4.8 12.9 0.00 0.00 0.00 92 1017.1
20200403133004 5 153 4.8 11.3 0.00 0.00 0.00 92 1017.2
20200403132503 5 153 4.8 11.3 0.00 0.00 0.00 92 1017.0
20200403132004 5 152 4.8 12.9 0.00 0.00 0.00 92 1017.1
20200403131503 5 152 3.2 12.9 0.00 0.00 0.00 92 1017.1
20200403131003 5 155 4.8 12.9 0.00 0.00 0.00 93 1017.2
20200403130503 5 161 4.8 12.9 0.00 0.00 0.00 93 1017.0
20200403130003 5 162 4.8 11.3 0.00 0.00 0.00 93 1017.0
20200403125503 5 157 4.8 11.3 0.00 0.00 0.00 93 1017.1
20200403125004 5 152 4.8 9.7 0.00 0.00 0.00 93 1017.1
20200403124504 5 162 3.2 8.0 0.00 0.00 0.00 93 1017.1
20200403124004 5 173 4.8 12.9 0.00 0.00 0.00 93 1017.1
20200403123503 5 169 3.2 12.9 0.00 0.00 0.00 93 1017.1
20200403123003 5 168 3.2 8.0 0.00 0.00 0.00 93 1017.2
20200403122503 5 162 3.2 6.4 0.00 0.00 0.00 93 1017.1
20200403122004 5 161 3.2 8.0 0.00 0.00 0.00 93 1017.1
20200403121503 5 166 3.2 8.0 0.00 0.00 0.00 93 1017.1
20200403121004 5 165 3.2 9.7 0.00 0.00 0.00 93 1017.1
20200403120503 6 162 4.8 9.7 0.00 0.00 0.00 93 1017.1
20200403120003 6 159 4.8 11.3 0.00 0.00 0.00 93 1017.1
20200403115504 6 159 6.4 11.3 0.00 0.00 0.00 93 1017.2
20200403115004 6 161 4.8 11.3 0.00 0.00 0.00 93 1017.2
20200403114504 6 166 3.2 11.3 0.00 0.00 0.00 93 1017.3
20200403114005 6 171 3.2 9.7 0.00 0.00 0.00 93 1017.2
20200403113503 6 175 1.6 8.0 0.00 0.00 0.00 93 1017.3
20200403113004 6 170 3.2 9.7 0.00 0.00 0.00 93 1017.3
20200403112504 6 168 4.8 9.7 0.00 0.00 0.00 93 1017.4
20200403112003 6 166 4.8 9.7 0.00 0.00 0.00 93 1017.3
20200403111503 6 165 3.2 9.7 0.00 0.00 0.00 93 1017.4
20200403111003 6 172 4.8 8.0 0.00 0.00 0.00 92 1017.4
20200403110504 6 173 4.8 11.3 0.00 0.00 0.00 92 1017.5
20200403110026 6 171 4.8 11.3 0.00 0.00 0.00 92 1017.5
20200403105504 6 165 4.8 9.7 0.00 0.00 0.00 93 1017.5
20200403105003 6 165 4.8 9.7 0.00 0.00 0.00 92 1017.5
20200403104503 6 170 3.2 12.9 0.00 0.00 0.00 92 1017.5
20200403104003 6 163 4.8 12.9 0.00 0.00 0.00 92 1017.4
20200403103503 6 161 6.4 12.9 0.00 0.00 0.00 92 1017.5
20200403103003 6 163 6.4 12.9 0.00 0.00 0.00 92 1017.6
20200403102503 6 167 6.4 12.9 0.00 0.00 0.00 92 1017.6
20200403102003 6 164 4.8 11.3 0.00 0.00 0.00 92 1017.7
20200403101505 6 145 6.4 12.9 0.00 0.00 0.00 92 1017.6
20200403101004 6 148 6.4 14.5 0.00 0.00 0.00 92 1017.7
20200403100504 6 155 6.4 14.5 0.00 0.00 0.00 92 1017.7
20200403100004 6 150 6.4 12.9 0.00 0.00 0.00 92 1017.8
20200403095503 6 154 6.4 14.5 0.00 0.00 0.00 92 1017.7
20200403095004 6 155 6.4 14.5 0.00 0.00 0.00 92 1017.9
20200403094503 6 154 4.8 11.3 0.00 0.00 0.00 92 1017.8
20200403094003 6 160 3.2 9.7 0.00 0.00 0.00 92 1018.0
20200403093503 6 167 3.2 8.0 0.00 0.00 0.00 91 1018.1
20200403093003 6 167 4.8 8.0 0.00 0.00 0.00 91 1018.1
20200403092503 6 162 4.8 8.0 0.00 0.00 0.00 91 1018.1
20200403092004 6 152 3.2 8.0 0.00 0.00 0.00 91 1018.1
20200403091512 6 154 3.2 11.3 0.00 0.00 0.00 91 1018.2
20200403091004 6 161 4.8 11.3 0.00 0.00 0.00 91 1018.3
20200403090504 6 161 3.2 9.7 0.00 0.00 0.00 91 1018.3
20200403090004 6 166 3.2 8.0 0.00 0.00 0.00 91 1018.3
20200403085503 6 164 3.2 8.0 0.00 0.00 0.00 91 1018.2
20200403085003 6 153 4.8 9.7 0.00 0.00 0.00 91 1018.2
20200403084504 6 152 4.8 9.7 0.00 0.00 0.00 91 1018.3
20200403084003 6 157 4.8 9.7 0.00 0.00 0.00 90 1018.3
20200403083505 6 159 4.8 11.3 0.00 0.00 0.00 90 1018.3
20200403083004 6 158 6.4 11.3 0.00 0.00 0.00 90 1018.3
20200403082503 6 160 6.4 12.9 0.00 0.00 0.00 90 1018.3
20200403082004 6 159 6.4 14.5 0.00 0.00 0.00 90 1018.4
20200403081503 6 161 6.4 14.5 0.00 0.00 0.00 90 1018.3
20200403081004 6 163 4.8 12.9 0.00 0.00 0.00 90 1018.3
20200403080503 7 157 6.4 12.9 0.00 0.00 0.00 89 1018.3
20200403080003 7 152 4.8 12.9 0.00 0.00 0.00 89 1018.3
20200403075503 7 153 4.8 11.3 0.00 0.00 0.00 89 1018.3
20200403075004 7 157 4.8 11.3 0.00 0.00 0.00 88 1018.4
20200403074504 7 154 4.8 14.5 0.00 0.00 0.00 88 1018.5
20200403074004 7 155 6.4 14.5 0.00 0.00 0.00 88 1018.5
20200403073504 7 160 6.4 11.3 0.00 0.00 0.00 88 1018.4
20200403073003 7 161 6.4 11.3 0.00 0.00 0.00 88 1018.5
20200403072503 7 156 4.8 11.3 0.00 0.00 0.00 87 1018.5
20200403072003 7 152 4.8 12.9 0.00 0.00 0.00 87 1018.5
20200403071503 7 158 4.8 12.9 0.00 0.00 0.00 87 1018.5
20200403071004 7 161 4.8 9.7 0.00 0.00 0.00 87 1018.6
20200403070504 7 155 4.8 11.3 0.00 0.00 0.00 86 1018.5
20200403070006 7 157 6.4 11.3 0.00 0.00 0.00 86 1018.5
20200403065504 7 161 6.4 11.3 0.00 0.00 0.00 86 1018.5
20200403065005 7 159 6.4 12.9 0.00 0.00 0.00 85 1018.5
20200403064504 7 160 6.4 12.9 0.00 0.00 0.00 85 1018.6
20200403064004 7 161 4.8 11.3 0.00 0.00 0.00 85 1018.6
20200403063503 7 159 6.4 11.3 0.00 0.00 0.00 84 1018.6
20200403063004 7 159 6.4 12.9 0.00 0.00 0.00 84 1018.6
20200403062503 7 159 4.8 12.9 0.00 0.00 0.00 83 1018.6
20200403062004 7 161 4.8 9.7 0.00 0.00 0.00 83 1018.6
20200403061505 7 162 4.8 9.7 0.00 0.00 0.00 83 1018.6
20200403061004 7 165 3.2 9.7 0.00 0.00 0.00 82 1018.6
20200403060504 7 167 3.2 11.3 0.00 0.00 0.00 82 1018.5
20200403060003 7 161 4.8 11.3 0.00 0.00 0.00 82 1018.5
20200403055504 7 163 3.2 8.0 0.00 0.00 0.00 81 1018.5
20200403055003 7 172 3.2 8.0 0.00 0.00 0.00 81 1018.4
20200403054502 7 174 1.6 8.0 0.00 0.00 0.00 81 1018.4
20200403054002 7 172 1.6 6.4 0.00 0.00 0.00 80 1018.5
20200403053502 7 170 1.6 6.4 0.00 0.00 0.00 80 1018.5
20200403053002 7 169 1.6 8.0 0.00 0.00 0.00 80 1018.6
20200403052503 7 170 1.6 8.0 0.00 0.00 0.00 80 1018.6
20200403052003 8 173 1.6 4.8 0.00 0.00 0.00 80 1018.5
20200403051503 8 172 1.6 4.8 0.00 0.00 0.00 80 1018.5
20200403051003 8 171 3.2 6.4 0.00 0.00 0.00 80 1018.6
20200403050502 8 171 1.6 6.4 0.00 0.00 0.00 79 1018.5
20200403050003 8 172 1.6 4.8 0.00 0.00 0.00 79 1018.4
20200403045503 8 172 1.6 6.4 0.00 0.00 0.00 79 1018.5
20200403045002 8 172 1.6 6.4 0.00 0.00 0.00 79 1018.4
20200403044502 8 172 3.2 4.8 0.00 0.00 0.00 78 1018.4
20200403044002 8 172 1.6 6.4 0.00 0.00 0.00 78 1018.5
20200403043504 8 172 1.6 6.4 0.00 0.00 0.00 78 1018.5
20200403043003 8 173 1.6 8.0 0.00 0.00 0.00 77 1018.4
20200403042503 8 177 1.6 8.0 0.00 0.00 0.00 77 1018.4
20200403042003 8 171 3.2 6.4 0.00 0.00 0.00 77 1018.4
20200403041503 8 164 3.2 6.4 0.00 0.00 0.00 77 1018.3
20200403041003 8 160 1.6 6.4 0.00 0.00 0.00 76 1018.3
20200403040503 8 162 1.6 8.0 0.00 0.00 0.00 76 1018.3
20200403040002 8 165 3.2 8.0 0.00 0.00 0.00 75 1018.2
20200403035502 8 167 3.2 8.0 0.00 0.00 0.00 75 1018.1
20200403035003 8 170 1.6 8.0 0.00 0.00 0.00 74 1018.1
20200403034502 9 190 1.6 6.4 0.00 0.00 0.00 73 1018.1
20200403034003 9 229 0.0 3.2 0.00 0.00 0.00 73 1018.1